Flag for Kazakhstan Weather past 2 weeks in Astana, Kazakhstan

Now
54 °F

Passing clouds.


Feels Like: 51 °F
Forecast: 45 / 68 °F
Wind: 8 mph from West

Location: Astana

Current Time: Sep 4, 2015 at 10:18:46 AM

Latest Report: Sep 4, 2015 at 9:30 AM


Visibility: N/A

Pressure: 30.07 "Hg

Humidity: 58%

Dew point: 39 °F

Location of AstanaLocation

Historic Weather in Astana — Graph

°F

Astana temperature yesterday

Maximum temperature yesterday: 66 °F (at 3:30 PM)
Minimum temperature yesterday: 46 °F (at 11:30 PM)
Average temperature yesterday: 56 °F

Past Weeks' High & Low Weather Summary

 TemperatureHumidityPressure
High86 °F (Aug 31, 2:00 PM)100% (Sep 3, 7:00 AM)30.18 "Hg (Sep 3, 7:00 AM)
Low39 °F (Aug 28, 1:30 AM)12% (Aug 31, 2:30 PM)29.53 "Hg (Aug 25, 3:30 PM)
Average59 °F53%29.84 "Hg
* Reported Aug 20 9:00 AM — Sep 4 9:00 AM, Astana, Weather by CustomWeather, © 2015

Note: Actual official high and low records may vary slightly from our data, if they occured in-between our weather recording intervals... More about our weather records

Advertising

Astana weather history for previous 24 hours

 ConditionsComfort  
Time TempWeatherWind HumidityBarometerVisibility
9:00 AM
Fri, Sep 4
50 °FSunny.6 mph67%30.07 "Hg10 mi
8:30 AM50 °FSunny.6 mph62%30.07 "Hg10 mi
8:00 AM48 °FSunny.8 mph62%30.07 "Hg10 mi
7:30 AM46 °FSunny.8 mph62%30.04 "Hg10 mi
7:00 AM48 °FClear.8 mph54%30.04 "Hg10 mi
6:30 AM45 °FClear.8 mph71%30.01 "Hg10 mi
6:00 AM45 °FClear.6 mph76%30.01 "Hg10 mi
5:30 AM43 °FClear.8 mph81%30.01 "Hg10 mi
5:00 AM41 °FPassing clouds.6 mph87%30.01 "HgN/A
4:30 AM43 °FPassing clouds.3 mph76%29.98 "HgN/A
3:00 AM43 °FClear.1 mph81%29.98 "Hg10 mi
2:30 AM43 °FClear.6 mph81%29.98 "Hg10 mi
2:00 AM48 °FClear.1 mph82%29.98 "Hg10 mi
1:30 AM43 °FClear.1 mph87%29.98 "Hg10 mi
1:00 AM43 °FClear.1 mph81%29.98 "Hg10 mi
12:30 AM45 °FClear.1 mph81%29.98 "Hg10 mi
12:00 AM46 °FClear.No wind82%29.95 "Hg10 mi
11:30 PM
Thu, Sep 3
46 °FClear.1 mph82%29.95 "Hg10 mi
11:00 PM48 °FClear.No wind58%29.95 "Hg10 mi
10:30 PM50 °FClear.No wind54%29.95 "Hg10 mi
10:00 PM52 °FClear.1 mph50%29.95 "Hg10 mi
9:30 PM54 °FClear.1 mph44%29.95 "Hg10 mi
9:00 PM55 °FClear.1 mph41%29.95 "Hg10 mi
8:30 PM59 °FSunny.3 mph29%29.95 "Hg10 mi
8:00 PM59 °FSunny.6 mph29%29.92 "Hg10 mi
7:30 PM61 °FPassing clouds.3 mph27%29.92 "HgN/A
7:00 PM63 °FPassing clouds.6 mph24%29.92 "HgN/A
6:30 PM64 °FPassing clouds.8 mph21%29.92 "HgN/A
6:00 PM64 °FPassing clouds.8 mph22%29.89 "HgN/A
5:30 PM66 °FPassing clouds.8 mph21%29.89 "HgN/A
5:00 PM64 °FPassing clouds.10 mph24%29.89 "HgN/A
4:30 PM66 °FPassing clouds.10 mph22%29.89 "HgN/A
4:00 PM64 °FPassing clouds.8 mph28%29.86 "HgN/A
3:30 PM66 °FPassing clouds.8 mph26%29.86 "HgN/A
3:00 PM64 °FPartly sunny.10 mph32%29.86 "HgN/A
2:30 PM64 °FPartly sunny.10 mph32%29.86 "HgN/A
2:00 PM64 °FPartly sunny.10 mph30%29.86 "HgN/A
1:30 PM63 °FPartly sunny.10 mph34%29.86 "HgN/A
1:00 PM63 °FPartly sunny.8 mph42%29.86 "HgN/A
12:30 PM63 °FPartly sunny.10 mph45%29.83 "HgN/A
12:00 PM63 °FScattered clouds.8 mph52%29.83 "HgN/A
11:30 AM61 °FBroken clouds.8 mph59%29.83 "HgN/A
11:00 AM59 °FBroken clouds.10 mph63%29.83 "HgN/A
10:30 AM57 °FBroken clouds.8 mph72%29.83 "HgN/A
Weather by CustomWeather, © 2015

See weather overviewHow to use our weather pages